Find Starlink 1284

NORAD ID: 45390 Int'l Des: 2020-019 Owner: SPXS Country: US Constellation: starlink operational
LEOCIRCULAR

Live Position

Loading 3D Globe...

About Starlink 1284

Description loading...

Upcoming Passes

Passes for default location (London). Set your location on the main map for personalized predictions.

Altitude History

Loading altitude history...

Two-Line Element Set

1 45390U 20019AG 26104.86128631 .00060260 00000-0 77645-3 0 9997
2 45390 53.0433 316.0788 0004480 180.3706 179.7303 15.58462882335858
Epoch: Apr 14, 2026 • Age: 10 hours

Current Status

Altitude 390.6 km
Velocity 7.68 km/s
Sub-Earth Point 26.39°N, 170.9°E
Launch Date Mar 18, 2020
Age 6 years
Type internet

Technical Details

Classification Payload
Mass 260.00 kg
Dry Mass 248.00 kg
Total Mass 260.00 kg
Length 0.20 m
Diameter 2.80 m
Span 9.00 m
Shape Box + pan
Manufacturer SPXS
Bus Type Starlink
Phase Status In Orbit
Owner/State SPXS/US

Most Searched